Location: Baili�vre
(50.0696°N, 4.2409°E)
Time: 16:14:03
(UTC+00:00)

Cosmos 1867 - Pass Details

Date: 08 August 2020
Orbit: 777 x 798 km, 65.0° (Epoch: 18 September)

Event Time Altitude Azimuth Distance (km) Brightness Sun altitude
Rises 20:58:59 0° 202° (SSW) 3,270 6.5 -14.3°
Reaches altitude 10° 21:01:26 10° 198° (SSW) 2,348 5.7 -14.6°
Maximum altitude 21:06:41 54° 122° (ESE) 961 3.6 -15.1°
Drops below altitude 10° 21:11:59 10° 46° (NE) 2,375 6.1 -15.7°
Sets 21:14:28 0° 43° (NE) 3,310 6.9 -15.9°
